Location: *
(51.2167°N, 10.0667°E)
Time: 12:46:23
(UTC+00:00)

Cosmos 614 Rocket - Pass Details

Date: 12 December 2019
Orbit: 733 x 763 km, 74.1° (Epoch: 19 January)

Event Time Altitude Azimuth Distance (km) Brightness Sun altitude
Rises 17:42:44 0° 205° (SSW) 3,163 7.7 -22.3°
Reaches altitude 10° 17:45:05 10° 206° (SSW) 2,241 6.8 -22.6°
Maximum altitude 17:50:09 83° 294° (WNW) 748 3.9 -23.4°
Enters shadow 17:51:50 43° 18° (NNE) 1,027 4.4 -23.7°
